Location: Malmö
(55.6090°N, 13.0007°E)
Time: 01:06:17
(UTC+01:00)

ISS - Pass Details

Date: 01 February 2021
Orbit: 417 x 422 km, 51.6° (Epoch: 06 March)

Event Time Altitude Azimuth Distance (km) Brightness Sun altitude
Rises 18:51:57 0° 273° (W) 2,377 1.7 -18.1°
Reaches altitude 10° 18:54:20 10° 258° (WSW) 1,511 0.3 -18.4°
Maximum altitude 18:57:02 22° 206° (SSW) 976 -1.6 -18.8°
Enters shadow 18:58:32 17° 169° (S) 1,169 -1.6 -19.0°
